DAMPE

Last updated on Thu Nov 21 2024 00:03:26 GMT+0000 (Coordinated Universal Time)

1 41173U 15078A 24325.54869946 .00002791 00000+0 10394-3 0 9992 2 41173 97.4404 318.6442 0011284 315.9855 44.0485 15.28272172496850
UTC large
Height (km)
Speed (km/s)
/
Latitude / Longitude
Inclination (degrees)
Orbital Period (minutes)
Azimuth
Elevation
Range (km)
Doppler Factor

Next 0 passes for location: London (51.5072 / 0.1276)

Sorry there are no passes over London.